Regional Weather Roundup
Issued by NWS

Home | Current Version | Previous Version | Text Only | Print | Product List | Glossary Off
Versions: 1 2 3 4 5 6 7 8 9 10 11 12 13 14 15 16 17 18 19 20 21 22 23 24 25 26 27 28 29 30 31 32 33 34 35 36 37 38 39 40 41 42 43 44 45 46 47 48 49 50

000
ASUS43 KIND 280159
RWRIN

WEATHER ROUNDUP FOR INDIANA
NATIONAL WEATHER SERVICE INDIANAPOLIS IN
1000 PM EDT MON JUL 27 2015

NOTE: "FAIR" INDICATES FEW OR NO CLOUDS BELOW 12,000 FEET WITH NO
SIGNIFICANT WEATHER AND/OR OBSTRUCTIONS TO VISIBILITY.

* - STATION DOES NOT REPORT WEATHER SUCH AS PRECIPITATION OR FOG.

+ - STATION NOT QUALITY CONTROLLED BY THE NATIONAL WEATHER SERVICE.
    USE DATA WITH CAUTION...ESPECIALLY DEWPOINT AND RELATIVE
    HUMIDITY OBSERVATIONS.

INZ001>003-010>013-019-020-280300-
NORTHWEST INDIANA

CITY           SKY/WX    TMP DP  RH WIND       PRES   REMARKS
GARY /AIRPORT/ MOCLDY    75  70  83 E8        30.01R

$$

LMZ046-743>745-280300-
SOUTHERN LAKE MICHIGAN

STATION/POSITION TIME  TEMP    WIND        PRES    WAVE
                       AIR SEA DIR/SP/G            HT
                 (UTC) (F)     (DEG/KT/KT) (MB)    (FT)
BURNS HARBOR     0100   74      60/  8/  8 1015.9S
MICHIGAN CITY    0100   74      40/ 12/ 12   N/A
5NW MICH CITY    0100   76 75   60/ 12/ 16   N/A     2

$$

INZ004-005-014>016-021>024-280300-
NORTH CENTRAL INDIANA

CITY           SKY/WX    TMP DP  RH WIND       PRES   REMARKS
GOSHEN         PTCLDY    72  65  78 NE3       30.01R
SOUTH BEND     MOCLDY    79  62  56 E3        30.02R

$$

INZ006>009-017-018-025>027-280300-
NORTHEAST INDIANA

CITY           SKY/WX    TMP DP  RH WIND       PRES   REMARKS
ANGOLA *+      CLEAR     72  63  73 CALM      30.03R
FORT WAYNE     PTCLDY    74  63  68 E8        30.01R

$$

INZ028-029-035-036-043>045-051>053-280300-
WEST CENTRAL INDIANA

CITY           SKY/WX    TMP DP  RH WIND       PRES   REMARKS
CRAWFORDSVL +  MOCLDY    74  72  93 NE3         N/A
GREENCASTLE +  PTCLDY    77  70  78 CALM      29.99R
LAFAYETTE      MOCLDY    76  68  76 NE5       29.98R
TERRE HAUTE    PTCLDY    77  74  90 N3        29.97R

$$

INZ030>032-037>040-046>048-054>057-064-065-280300-
CENTRAL INDIANA

CITY           SKY/WX    TMP DP  RH WIND       PRES   REMARKS
COLUMBUS       PTCLDY    77  73  88 E5        29.97R
GREENWOOD *+   PTCLDY    79  70  73 NE5       29.99R
INDIANAPOLIS   MOCLDY    80  71  74 E8        29.97R
-EAGLE CREEK   PTCLDY    80  72  76 NE6       29.97R
KOKOMO *+      CLOUDY    73  66  78 NE5       29.99R
MT COMFORT *+  PTCLDY    73 N/A N/A CALM      30.00R
SHELBYVILLE    PTCLDY    77  73  87 NE5       29.97R

$$

INZ033-034-041-042-049-050-058-059-280300-
EAST CENTRAL INDIANA

CITY           SKY/WX    TMP DP  RH WIND       PRES   REMARKS
MUNCIE         CLOUDY    76  71  85 E5        30.00R

$$

INZ060-061-067>069-081>083-085>088-280300-
SOUTHWEST INDIANA

CITY           SKY/WX    TMP DP  RH WIND       PRES   REMARKS
EVANSVILLE     CLOUDY    82  74  76 CALM      29.94R
HUNTINGBURG *+ PTCLDY    79  75  89 CALM      29.96R

$$

INZ062-063-066-070>080-084-089>092-280300-
SOUTH CENTRAL AND SOUTHEAST INDIANA

CITY           SKY/WX    TMP DP  RH WIND       PRES   REMARKS
BLOOMINGTON    PTCLDY    78  74  87 CALM      29.98R
MADISON *+     PTCLDY    77  73  88 CALM      29.99R
SEYMOUR +      PTCLDY    79  75  89 CALM      29.96R

$$



USA.gov is the U.S. government's official web portal to all federal, state and local government web resources and services.